Theta_e
281 281 280 280 280 280 279 279 279 280 280 280 280 279 279 279 278 277 277 277 276 277 277 277 278 279 279 280 281 283 284 284 281 282 285 287 288 288 288 287 287 286 288
280 280 279 279 279 279 278 279 279 279 279 279 279 279 279 278 278 277 277 277 277 276 277 277 276 278 277 278 279 280 281 282 280 279 281 282 284 286 287 287 288 288 286
279 279 279 278 278 278 278 278 278 278 277 278 278 277 277 277 277 277 277 277 277 277 277 277 277 277 276 277 277 278 279 280 280 279 279 282 283 284 284 285 285 286 286
278 278 278 277 277 277 277 277 277 276 276 275 275 275 275 275 275 275 276 276 276 276 277 277 277 277 277 277 277 277 278 278 278 278 278 279 280 282 282 282 283 284 284
277 277 276 276 276 275 275 275 274 273 273 273 272 272 272 272 273 273 274 273 273 273 274 275 276 277 280 280 278 278 277 277 277 277 276 277 278 279 279 282 281 282 284
275 275 275 275 274 273 273 272 271 271 271 270 270 270 269 270 273 274 274 272 272 272 271 272 273 273 275 278 279 281 281 277 276 276 276 277 278 280 281 281 281 280 279
274 273 273 272 270 270 270 270 269 268 268 268 268 267 267 267 271 273 274 272 271 270 270 270 271 272 272 272 274 276 277 278 280 278 276 276 276 278 279 280 281 281 281
271 269 270 269 268 268 268 267 266 266 266 265 265 265 265 266 270 272 272 270 269 269 269 269 269 269 270 271 271 271 272 272 274 275 276 275 276 276 276 277 278 280 281
270 270 268 267 265 266 263 264 265 264 264 263 264 264 263 264 268 270 270 268 268 268 268 269 269 269 271 273 271 270 271 272 275 277 278 279 279 280 280 278 275 276 275
269 268 267 266 261 261 263 262 263 262 263 263 263 263 262 261 266 269 270 268 266 267 268 269 271 270 273 275 272 271 269 270 272 272 273 274 276 276 278 276 276 274 274
266 266 265 264 261 260 260 261 260 260 261 260 260 261 261 262 262 268 270 269 267 267 268 269 270 273 274 275 275 272 271 273 273 272 272 272 273 273 274 275 276 275 273
264 263 260 257 258 260 255 258 258 258 258 258 258 259 261 262 265 268 270 272 272 269 268 269 269 273 274 275 275 276 277 277 274 273 271 270 270 271 273 274 275 278 279
258 255 254 256 258 258 255 257 258 258 258 258 259 259 260 263 264 269 271 272 273 271 271 272 275 276 277 276 276 276 274 271 270 268 268 268 269 270 272 272 273 275 276
251 254 256 255 256 257 259 259 258 257 258 259 259 260 262 265 266 267 267 269 272 273 273 272 274 276 276 274 272 272 272 271 270 270 270 270 271 270 269 270 269 270 271
253 256 256 256 255 257 259 259 260 261 262 263 265 265 264 264 266 271 272 271 271 273 273 270 267 266 266 266 267 268 269 269 268 269 268 268 268 268 269 270 270 270 269
255 257 256 257 257 258 258 258 263 266 268 269 270 269 267 270 272 273 273 274 274 274 267 261 261 262 263 264 264 265 266 267 268 269 267 267 267 267 268 269 270 269 269
251 255 255 257 256 256 256 256 255 259 265 265 267 268 269 270 271 272 272 272 269 267 258 259 260 261 261 262 263 264 264 266 268 268 268 268 268 268 268 268 269 270 271
248 253 252 254 253 254 255 255 255 254 254 256 261 264 267 268 270 271 270 266 259 260 258 259 259 260 261 261 262 263 266 267 268 267 267 267 267 268 268 269 270 274 275
250 251 251 251 252 253 253 253 253 253 253 254 256 260 261 265 268 267 267 257 258 258 259 259 260 260 261 262 263 265 266 267 268 266 266 267 267 267 268 270 271 273 276
249 252 253 249 250 250 251 252 252 251 253 253 254 255 257 261 258 257 258 259 259 260 260 260 261 261 262 263 264 265 266 267 268 267 266 266 267 268 268 269 272 273 276
249 247 252 249 247 248 249 251 251 251 252 252 253 255 266 259 255 256 257 259 259 260 260 261 261 262 263 264 265 265 265 266 267 268 269 270 270 270 272 273 275 276 276
249 246 245 245 248 249 249 251 251 250 251 251 253 254 262 254 254 255 256 258 260 261 262 262 262 263 264 265 266 266 265 265 266 267 268 269 269 270 271 271 270 270 270
251 247 247 246 247 249 251 250 249 250 250 250 251 252 253 253 254 254 255 257 259 260 261 262 262 263 264 265 267 268 267 266 267 267 267 268 268 268 269 269 269 268 269
248 246 247 248 247 248 250 250 250 251 251 250 249 250 251 252 253 253 254 256 257 259 261 261 262 262 263 264 267 269 270 269 268 267 267 267 267 267 267 267 267 267 267
245 245 247 248 246 250 250 250 250 248 248 248 250 249 251 252 253 253 254 255 257 258 259 261 262 262 263 263 265 269 271 269 268 268 267 267 266 266 266 266 266 266 265
246 247 248 250 249 250 250 249 249 248 248 249 249 250 251 252 253 253 254 255 256 256 258 260 261 262 263 264 265 270 271 271 268 267 267 266 265 265 265 264 264 264 264
Wind_Speed
3 3 6 6 6 6 6 6 6 7 9 10 10 11 11 11 9 7 6 7 7 9 6 7 11 9 8 7 6 7 8 8 13 11 9 10 12 11 9 7 7 9 9
2 2 3 5 6 7 7 7 7 7 7 7 7 8 9 10 10 10 12 12 13 14 14 12 12 8 11 10 8 10 10 9 10 18 11 10 12 11 11 11 10 8 8
1 2 3 4 4 4 4 5 5 5 5 6 7 9 10 10 11 11 11 13 13 14 14 15 16 13 12 10 9 10 10 9 10 12 14 9 10 9 9 10 9 10 8
2 2 3 3 3 4 4 5 4 5 6 6 7 9 10 11 12 13 13 14 14 14 14 15 15 16 16 14 12 12 11 11 11 12 13 11 10 9 8 10 11 7 9
5 4 3 3 3 3 4 4 5 6 7 7 10 10 10 10 9 13 14 15 16 18 17 17 16 17 25 24 15 15 15 13 12 12 14 13 11 9 9 9 10 9 10
4 4 3 3 4 4 5 6 7 7 8 9 9 10 11 10 20 24 21 15 16 16 16 16 16 19 20 29 32 32 28 19 18 13 14 15 16 12 10 10 11 10 14
4 4 4 4 4 5 6 7 8 9 9 10 10 11 12 13 22 24 25 15 15 15 16 15 15 12 17 17 23 30 30 31 30 20 19 18 18 15 14 14 13 14 15
4 4 4 3 4 6 6 8 8 8 10 10 11 11 12 12 24 25 26 16 14 15 15 16 16 16 15 18 18 18 18 18 18 15 16 20 19 19 18 19 18 18 15
3 3 3 2 3 6 7 8 8 9 9 10 11 12 13 13 24 26 23 15 14 15 14 15 15 17 22 27 19 18 18 17 19 30 33 36 38 40 34 18 16 14 17
3 2 2 2 2 5 7 8 7 7 10 9 11 11 14 15 22 25 22 11 13 12 14 15 22 20 29 28 18 16 17 16 16 16 16 21 25 23 32 22 16 17 17
3 1 1 1 3 5 6 7 8 9 10 9 11 11 12 13 15 24 24 13 11 12 12 11 11 26 29 29 29 17 18 20 21 18 16 15 15 17 15 14 18 18 18
2 0 2 2 5 5 5 7 7 8 9 9 10 10 9 11 18 20 25 26 24 14 14 13 14 30 32 32 27 32 36 33 14 11 10 11 12 12 12 14 17 17 17
2 3 3 4 5 6 5 9 6 6 7 8 8 10 10 10 10 22 27 28 28 19 14 22 35 34 35 28 30 31 28 14 14 14 15 15 14 14 16 17 18 20 20
1 4 4 3 5 5 6 6 6 6 7 8 10 10 10 11 10 10 12 13 19 17 18 16 20 23 27 25 17 17 13 14 15 16 16 14 13 12 13 12 14 14 16
2 3 4 4 5 6 6 6 7 8 9 10 10 10 10 10 11 24 23 14 13 17 19 10 10 11 12 11 11 13 12 11 13 14 14 14 13 12 13 12 12 12 15
2 3 3 4 4 5 6 8 14 16 18 20 21 15 9 21 27 28 29 29 29 28 11 9 10 10 11 12 12 13 12 14 13 13 13 12 12 11 13 13 14 13 14
5 4 3 5 4 4 5 5 9 15 16 13 15 19 21 21 25 27 27 27 24 18 5 8 10 10 12 12 12 13 14 13 14 12 10 8 9 11 14 13 14 16 13
4 6 4 4 4 4 4 5 5 6 11 11 11 17 18 23 25 25 24 19 11 9 6 9 10 11 11 12 13 13 14 13 10 8 9 10 11 11 11 13 13 12 10
4 4 4 4 4 4 3 4 5 5 6 8 12 15 13 23 22 20 20 5 9 10 10 10 10 11 11 12 12 13 14 13 11 8 9 10 10 10 12 12 12 15 11
5 7 5 3 3 3 3 4 4 4 5 6 7 8 11 11 10 11 9 9 9 9 10 10 11 11 11 12 12 12 12 12 12 8 9 9 10 10 11 12 11 11 9
4 3 4 2 3 4 4 4 4 4 5 6 8 6 19 8 8 8 9 9 9 10 11 11 11 11 11 12 12 11 12 12 11 11 9 8 8 8 9 10 10 10 5
4 3 2 3 3 3 4 4 3 4 4 6 8 7 18 5 6 8 8 9 9 10 9 10 10 10 11 12 12 11 11 12 12 11 11 9 8 7 5 4 3 3 4
4 3 3 3 3 4 4 3 3 4 4 6 6 6 6 6 7 7 8 9 10 10 10 10 10 11 12 12 12 11 10 11 11 10 10 9 7 7 6 4 5 5 5
3 3 3 4 3 3 4 4 4 5 5 6 5 6 6 6 7 8 8 8 9 10 10 10 10 14 14 13 12 13 9 9 9 9 11 9 8 8 7 6 7 8 7
3 3 3 4 4 4 4 4 4 4 4 5 5 4 5 6 7 7 8 8 9 10 11 11 10 14 15 20 18 20 16 14 13 13 8 9 10 11 9 7 8 8 9
3 4 4 4 4 4 4 5 4 4 5 5 5 5 6 7 7 7 7 8 9 11 12 10 12 17 18 14 17 19 20 16 14 16 9 9 9 8 8 9 12 8 9
Wind_Direction
116 70 47 32 25 18 20 10 4 358 360 353 349 343 341 338 340 332 311 296 297 297 286 276 283 280 276 279 273 264 263 257 267 275 276 280 280 277 269 251 249 252 261
47 53 42 27 18 11 1 355 355 344 338 330 324 321 320 317 317 314 310 309 309 310 308 298 289 286 282 278 274 273 270 267 273 281 276 280 272 271 271 267 264 253 248
53 38 30 30 22 357 336 332 330 321 315 317 321 319 318 314 311 307 297 295 291 287 287 292 294 293 286 282 274 273 273 273 272 276 280 273 275 277 270 264 260 257 249
131 115 100 68 11 350 345 346 340 333 320 323 321 315 312 310 309 303 300 300 297 292 287 280 278 278 282 284 277 275 276 273 272 271 277 278 269 265 261 270 271 250 258
120 112 76 44 33 10 2 348 334 328 328 323 319 313 312 310 305 309 307 302 297 293 291 291 290 289 288 284 281 280 278 276 275 275 279 279 270 266 253 263 263 272 262
121 92 57 53 34 7 349 340 327 326 323 317 313 312 310 306 309 307 304 296 296 297 298 298 300 299 294 290 287 287 283 276 270 270 275 270 273 271 266 265 262 266 278
95 65 62 48 15 347 334 326 327 326 322 319 315 313 308 305 305 305 307 300 295 292 291 293 293 292 296 291 290 288 287 288 286 283 277 274 281 280 288 282 269 257 256
95 98 76 38 351 335 328 325 322 320 317 312 308 303 296 298 305 308 306 299 297 294 290 289 288 289 287 287 283 278 276 274 274 278 280 279 278 280 272 268 273 282 281
99 95 62 23 336 327 316 315 316 310 306 300 297 303 299 297 304 306 307 300 293 291 286 283 280 280 283 287 282 278 276 272 273 275 274 274 273 271 267 267 264 267 256
100 42 7 338 307 307 305 305 300 294 293 298 296 296 292 291 297 301 303 293 290 287 283 278 276 278 281 284 282 280 279 279 278 276 271 272 275 278 278 275 270 261 256
101 52 312 339 308 288 290 292 293 290 293 294 291 289 282 280 282 294 303 298 290 283 277 278 272 277 285 286 285 277 271 272 268 267 263 261 262 263 262 256 258 250 248
94 344 306 296 299 299 288 291 285 288 292 294 294 292 286 282 280 292 301 299 296 296 285 276 274 276 276 275 273 268 268 270 271 273 272 269 268 265 267 265 263 269 251
84 295 290 300 294 287 282 288 294 286 286 295 295 295 295 288 281 290 293 293 289 289 281 280 288 292 290 293 289 284 284 276 270 265 262 261 260 264 266 262 262 277 261
235 281 283 270 284 268 274 279 281 280 285 287 287 287 287 302 303 298 284 281 282 287 288 282 279 296 308 301 298 288 276 270 268 265 264 263 263 262 260 259 262 259 263
228 279 276 269 264 282 271 276 275 271 276 288 298 300 306 306 303 306 314 312 303 299 313 327 319 315 306 302 298 295 289 276 267 265 265 265 263 264 261 261 257 261 260
245 263 250 279 280 282 288 297 295 300 306 309 308 313 312 311 313 320 316 317 324 334 333 327 311 306 303 303 300 297 290 286 280 274 257 257 258 258 265 264 256 247 252
218 252 260 269 270 277 297 301 313 318 320 324 320 326 322 325 328 324 337 334 345 341 323 312 306 307 304 303 299 296 295 288 280 275 272 260 259 265 271 270 266 265 239
221 248 239 247 252 260 269 286 288 291 313 318 316 320 330 333 329 342 342 348 330 337 314 313 308 306 304 301 301 299 300 301 290 270 263 256 256 261 267 269 274 246 226
225 232 228 241 246 248 259 266 270 277 280 293 310 323 330 326 331 344 346 325 321 321 320 316 310 305 303 302 302 303 305 307 303 267 263 262 262 260 262 267 276 285 264
236 240 235 230 262 262 250 260 277 271 286 290 294 301 316 317 343 336 334 326 324 319 318 313 311 308 306 306 310 312 313 314 322 285 266 260 258 255 259 266 271 274 270
232 231 234 263 255 249 242 254 265 273 276 285 283 291 319 354 318 316 316 322 322 320 318 315 314 313 313 314 315 319 319 318 320 320 318 305 279 272 267 266 270 270 253
224 230 218 237 252 254 249 256 255 264 271 282 294 301 328 318 307 308 311 317 317 314 312 313 312 315 321 317 321 319 323 322 323 324 322 322 321 321 320 328 346 25 64
216 220 244 257 246 263 267 259 266 265 277 278 285 297 311 307 307 306 309 313 316 317 319 318 318 320 325 326 323 321 323 328 325 323 326 330 335 342 348 1 18 43 63
202 215 237 251 256 249 264 274 270 272 278 284 286 288 294 298 300 302 304 309 312 315 316 319 319 321 324 329 327 338 335 342 338 335 343 348 354 356 6 23 36 49 64
205 229 237 248 248 261 274 265 272 270 272 276 285 280 293 291 297 304 307 311 312 315 316 319 320 325 329 328 326 343 350 6 2 358 357 6 17 20 19 29 41 52 59
218 230 241 251 252 248 253 267 272 269 279 283 277 285 287 291 297 301 308 314 321 317 314 316 316 321 326 328 330 348 353 17 18 12 11 20 24 26 30 34 38 45 56